Home   Weather   Neunkirchen (Saar)   Past weeks

Flag for Germany Past Weather in Neunkirchen (Saar), Saarland, Germany — Yesterday and Last 2 Weeks

Now
70 °F

Partly sunny.


Feels Like: 70 °F
Forecast: 55 / 78 °F
Wind: 15 mph from West

Location: Saarbruecken / Ensheim

Current Time: Jul 28, 2017 at 5:01:01 pm

Latest Report: Jul 28, 2017 at 4:20 pm


Visibility: N/A

Pressure: 30.01 "Hg

Humidity: 53%

Dew Point: 52 °F

Location of Neunkirchen (Saar)Location

Past Weather in Neunkirchen (Saar) — Graph

°F

Neunkirchen (Saar) Temperature Yesterday

Maximum temperature yesterday: 72 °F (at 3:50 pm)
Minimum temperature yesterday: 61 °F (at 1:50 am)
Average temperature yesterday: 64 °F

High & Low Weather Summary for the Past Weeks

 TemperatureHumidityPressure
High88 °F (Jul 19, 5:50 pm)100% (Jul 15, 1:20 am)30.27 "Hg (Jul 15, 1:20 am)
Low50 °F (Jul 15, 5:53 am)30% (Jul 13, 3:50 pm)29.77 "Hg (Jul 24, 5:50 am)
Average65 °F73%29.99 "Hg
* Reported Jul 13 3:20 pm — Jul 28 3:20 pm, Neunkirchen (Saar). Weather by CustomWeather, © 2017

Note: Actual official high and low records may vary slightly from our data, if they occured in-between our weather recording intervals... More about our weather records

Advertising

Neunkirchen (Saar) Weather History for the Previous 24 Hours

Scroll right to see more
 ConditionsComfort  
Time TempWeatherWind HumidityBarometerVisibility
3:20 pm
Fri, Jul 28
70 °FPartly sunny.16 mph53%30.01 "HgN/A
2:50 pm68 °FPartly sunny.16 mph56%30.01 "HgN/A
2:20 pm66 °FBroken clouds.14 mph64%30.01 "HgN/A
1:50 pm68 °FPartly sunny.13 mph60%30.01 "HgN/A
1:20 pm66 °FScattered clouds.15 mph68%30.01 "HgN/A
12:50 pm64 °FBroken clouds.16 mph68%30.01 "HgN/A
12:20 pm66 °FBroken clouds.12 mph68%30.01 "HgN/A
11:50 am64 °FBroken clouds.12 mph68%30.01 "HgN/A
11:20 am64 °FBroken clouds.8 mph73%30.01 "HgN/A
10:50 am63 °FBroken clouds.9 mph77%29.98 "HgN/A
10:20 am63 °FBroken clouds.9 mph83%29.98 "HgN/A
9:50 am61 °FBroken clouds.7 mph88%29.98 "HgN/A
9:20 am61 °FPartly sunny.8 mph88%29.98 "HgN/A
8:50 am61 °FBroken clouds.6 mph88%29.98 "HgN/A
8:20 am59 °FPartly sunny.5 mph88%29.95 "HgN/A
7:50 am59 °FPartly sunny.5 mph94%29.95 "HgN/A
7:20 am57 °FPartly sunny.2 mph94%29.95 "HgN/A
6:50 am57 °FPartly sunny.2 mph94%29.95 "HgN/A
6:20 am55 °FSunny.3 mph100%29.92 "Hg10 mi
5:50 am55 °FClear.3 mph100%29.92 "Hg10 mi
5:20 am55 °FClear.2 mph100%29.92 "Hg10 mi
4:50 am55 °FPassing clouds.3 mph100%29.89 "HgN/A
4:20 am55 °FFog.3 mph94%29.89 "HgN/A
3:50 am55 °FFog.2 mph100%29.89 "HgN/A
3:30 am55 °FClear.3 mph100%29.89 "Hg10 mi
3:20 am55 °FClear.3 mph100%29.89 "HgN/A
2:50 am55 °FClear.5 mph100%29.89 "HgN/A
2:20 am57 °FPassing clouds.3 mph94%29.89 "HgN/A
1:50 am57 °FPassing clouds.7 mph94%29.89 "HgN/A
1:20 am59 °FPassing clouds.8 mph88%29.89 "HgN/A
12:50 am59 °FPassing clouds.8 mph88%29.86 "HgN/A
12:20 am59 °FPassing clouds.9 mph94%29.86 "HgN/A
11:50 pm
Thu, Jul 27
61 °FPartly cloudy.9 mph88%29.83 "HgN/A
11:20 pm61 °FPartly cloudy.7 mph94%29.83 "HgN/A
10:50 pm61 °FPartly cloudy.8 mph94%29.83 "HgN/A
10:20 pm61 °FPartly cloudy.8 mph94%29.83 "HgN/A
9:50 pm61 °FPartly cloudy.12 mph94%29.83 "HgN/A
9:20 pm63 °FLight rain. Partly cloudy.14 mph88%29.80 "HgN/A
8:50 pm64 °FLight rain. Broken clouds.9 mph94%29.80 "HgN/A
8:20 pm64 °FLight rain. Broken clouds.9 mph88%29.80 "HgN/A
7:50 pm64 °FBroken clouds.8 mph88%29.80 "HgN/A
7:20 pm64 °FBroken clouds.8 mph88%29.80 "HgN/A
6:50 pm64 °FBroken clouds.9 mph83%29.80 "HgN/A
6:20 pm66 °FLight rain. Broken clouds.14 mph78%29.83 "HgN/A
5:50 pm68 °FMore clouds than sun.12 mph73%29.80 "HgN/A
5:20 pm68 °FMore clouds than sun.10 mph73%29.80 "HgN/A
Weather by CustomWeather, © 2017

See weather overviewHow to use our weather pages